2023-025C (55692 NORAD) Tracking and Keplerian Element Data

This shows tracking and keplerian element data for the satellite.

Feedback or suggestion? Click here.




ElementValue
Catalog55692
Name2023-025C
Epoch Orbit116
Epoch Day62.809066
Epoch Year2023
RAAN136.7192
Inclination97.6522
Eccentricity0.0092132
Argument of Perigee202.0033
Mean Anonmoly157.6163
Mean Motion15.15172449
Decay Rate0.00074644
L11 55692U 23025C 23062.80906600 .00074644 00000+0 35470-2 0 9996
L22 55692 97.6522 136.7192 0092132 202.0033 157.6163 15.15172449 1162



Live tracking and technical data element details for 2023-025C (NORAD 55692). 2023-025C can be tracked NOW for your location showing map with azimuth and elevation plus other details from your city location.







IsCatalogInMostPopularTable: catalog: 55692, numindb: 5
Update: records affected: 1



GetName: 55692 2023-025C

Hit Count: updated at: Wed, 22 Mar 2023 16:25:15 GMT